FLOCK 2E'-17 (41776 NORAD) Tracking and Keplerian Element Data

This shows tracking and keplerian element data for the satellite.

Feedback or suggestion? Click here.




ElementValue
Catalog41776
NameFLOCK 2E'-17
Epoch Orbit10171
Epoch Day177.35537988
Epoch Year2018
RAAN275.1051
Inclination51.6078
Eccentricity0.000772
Argument of Perigee296.031
Mean Anonmoly63.9922
Mean Motion16.4017137
Decay Rate0.11238463
L11 41776U 98067KN 18177.35537988 .11238463 12459-4 78797-3 0 9991
L22 41776 51.6078 275.1051 0007720 296.0310 63.9922 16.40171370101713



Live tracking and technical data element details for FLOCK 2E'-17 (NORAD 41776). FLOCK 2E'-17 can be tracked NOW for your location showing map with azimuth and elevation plus other details from your city location.







IsCatalogInMostPopularTable: catalog: 41776, numindb: 600
Update: records affected: 1



GetName: 41776 FLOCK 2E'-17

Hit Count: updated at: Thu, 15 May 2025 18:48:48 GMT